Date,TemperatureHighF,TemperatureAvgF,TemperatureLowF,DewpointHighF,DewpointAvgF,DewpointLowF,HumidityHigh,HumidityAvg,HumidityLow,PressureMaxIn,PressureMinIn,WindSpeedMaxMPH,WindSpeedAvgMPH,GustSpeedMaxMPH,PrecipitationSumIn
2013-3-1,66.8,62.2,57.8,59.6,53.7,48.7,94,74,61,29.93,29.84,13,3,13,0.02
2013-3-2,68.3,58.3,52.2,49.8,44.4,39.3,75,61,41,29.97,29.89,17,4,17,0.00
2013-3-3,65.0,55.2,49.2,49.0,44.8,41.0,95,70,44,30.08,29.90,16,4,16,0.03
2013-3-4,73.3,56.2,42.9,44.1,39.0,33.1,83,56,25,30.15,30.05,14,3,14,0.00
2013-3-5,80.1,63.5,47.3,59.3,53.7,44.6,100,74,42,30.11,30.02,12,1,12,0.00
2013-3-6,78.6,65.3,52.3,68.0,52.9,28.9,100,69,27,30.05,29.89,19,4,19,0.02
2013-3-7,76.0,60.0,46.5,55.5,45.1,37.5,92,61,32,30.12,30.01,12,2,12,0.00
2013-3-8,81.4,64.9,50.8,57.0,51.1,40.9,100,68,27,30.13,30.03,13,2,13,0.00
2013-3-9,80.7,65.6,52.6,59.0,54.6,50.5,99,70,43,30.12,30.04,14,2,14,0.00
2013-3-10,77.7,70.0,62.3,62.3,56.4,53.5,79,63,47,30.10,30.00,19,3,19,0.00
2013-3-11,80.1,72.3,66.0,63.4,61.4,57.1,83,69,51,30.05,29.90,14,3,14,0.00
2013-3-12,83.8,73.1,64.7,70.5,66.2,62.0,96,80,57,29.94,29.85,15,2,15,0.00
2013-3-13,81.4,67.7,56.5,67.6,55.4,42.5,100,69,30,30.06,29.92,14,3,14,0.00
2013-3-14,77.9,62.9,53.9,55.2,47.0,36.8,96,61,27,30.14,30.03,17,3,17,0.00
2013-3-15,78.6,63.9,52.2,54.4,50.4,45.6,86,64,35,30.19,30.08,12,3,12,0.00
2013-3-16,79.9,65.5,52.3,61.8,54.4,52.0,100,71,43,30.13,30.03,13,1,13,0.00
2013-3-17,79.9,67.8,56.0,64.7,59.0,55.2,100,76,49,30.09,29.97,13,1,13,0.00
2013-3-18,83.2,71.6,62.7,72.0,66.5,60.3,100,85,61,30.02,29.90,15,1,15,0.05
2013-3-19,82.0,73.5,68.3,71.6,69.3,65.3,100,88,61,29.96,29.76,12,2,12,0.06
2013-3-20,88.8,73.9,63.4,73.1,64.7,59.0,100,77,43,29.92,29.74,18,2,18,0.01
2013-3-21,80.3,68.6,59.8,64.2,53.9,40.1,100,65,29,29.88,29.77,14,3,14,0.00
2013-3-22,79.4,68.3,55.3,71.0,61.2,51.2,100,80,54,29.94,29.83,13,2,13,0.00
2013-3-23,91.6,79.1,71.1,77.4,72.1,68.7,100,82,50,29.93,29.74,13,1,13,0.03
2013-3-24,89.7,80.1,74.2,76.6,73.1,68.9,100,81,55,29.83,29.64,26,5,26,0.01
2013-3-25,82.2,74.8,62.9,75.5,62.1,40.5,100,69,36,29.94,29.68,17,4,17,0.01
2013-3-26,70.4,61.5,51.3,47.8,40.5,32.0,72,48,25,30.16,29.92,17,5,17,0.00
2013-3-27,74.2,58.3,45.7,47.4,41.1,37.2,83,56,30,30.19,30.11,15,4,15,0.00
2013-3-28,79.0,62.8,50.2,51.5,46.0,38.7,87,58,25,30.20,30.09,12,3,12,0.00
2013-3-29,78.3,66.3,55.9,54.3,50.4,43.2,75,58,37,30.22,30.14,14,3,14,0.00
2013-3-30,79.2,67.3,54.8,59.5,53.6,46.3,100,65,35,30.19,30.10,13,2,13,0.00
2013-3-31,83.2,70.7,58.6,67.1,62.4,54.8,100,77,53,30.13,29.99,17,2,17,0.00